This is the latest recevied weather packets stored in our database for station/object KB3KBR-WX. If no packets are shown the sender has not sent any weather packets the latest 10 day(s).
| Time | Temp. | Humidity | Pressure | Rain* | Wind** | Luminosity | Snow |
|---|---|---|---|---|---|---|---|
| 1787685657 | 22.78° C | 69% | 1016.4 hPa | 0 mm | - | - | - |
| 1787685329 | 23.33° C | 69% | 1016.4 hPa | 0 mm | - | - | - |
| 1787685029 | 23.89° C | 69% | 1016.5 hPa | 0 mm | - | - | - |
| 1787684067 | 23.33° C | 71% | 1016.5 hPa | 0 mm | - | - | - |
| 1787683739 | 23.33° C | 73% | 1016.6 hPa | 0 mm | - | - | - |
| 1787683438 | 23.33° C | 70% | 1016.7 hPa | 0 mm | - | - | - |
| 1787683109 | 23.33° C | 69% | 1016.8 hPa | 0 mm | - | - | - |
| 1787682776 | 23.33° C | 70% | 1016.8 hPa | 0 mm | - | - | - |
| 1787682117 | 22.78° C | 72% | 1016.8 hPa | 0 mm | - | - | - |
| 1787681787 | 23.33° C | 71% | 1016.8 hPa | 0 mm | - | - | - |
| 1787681457 | 23.33° C | 70% | 1016.8 hPa | 0 mm | - | - | - |
| 1787681128 | 22.78° C | 73% | 1016.8 hPa | 0 mm | - | - | - |
| 1787680829 | 22.78° C | 72% | 1016.9 hPa | 0 mm | - | - | - |
| 1787680498 | 22.78° C | 73% | 1017 hPa | 0 mm | - | - | - |
| 1787680196 | 22.78° C | 76% | 1017 hPa | 0 mm | - | - | - |
| 1787679896 | 22.78° C | 76% | 1017 hPa | 0 mm | - | - | - |
| 1787679237 | 21.67° C | 77% | 1017.1 hPa | 0 mm | - | - | - |
| 1787678937 | 21.67° C | 74% | 1017 hPa | 0 mm | - | - | - |
| 1787678637 | 22.22° C | 75% | 1017.1 hPa | 0 mm | - | - | - |
| 1787678306 | 22.22° C | 78% | 1017.1 hPa | 0 mm | - | - | - |
| 1787677977 | 22.22° C | 76% | 1017.1 hPa | 0 mm | - | - | - |
| 1787677646 | 22.22° C | 75% | 1017.1 hPa | 0 mm | - | - | - |
| 1787677318 | 22.22° C | 75% | 1017.1 hPa | 0 mm | - | - | - |
| 1787676987 | 22.22° C | 76% | 1017.1 hPa | 0 mm | - | - | - |
| 1787676658 | 21.67° C | 80% | 1017.1 hPa | 0 mm | - | - | - |
* Rain latest hour (hover to see other rain measurements)
** Current wind speed in m/s (hover to see current wind gust speed)